[[{"header":{"parameterUnit":"m.s-1","parameterCategory":1,"la1":30.2991,"la2":30.254,"lo1":-89.0895,"lo2":-89.0444,"dy":0.0017,"dx":0.0017,"nx":28,"ny":28,"refTime":"2025-04-02T09:00:00:Z","depth":0,"parameterNumber":2,"parameterNumberName":"U-component_of_WINDS"},"data":[0,0,0,0,0,0,0,0,0,0,0,0,0,0,0,0,0,0,0,0,0,0,0,0,0,0,0,0,0,0,0,0,0,0,0,0,0,0,0,0,0,0,0,0,0,0,0,0,0,0,0,0,0,0,0,0,0,0,-5.2424,-5.2425,0,-5.2559,-5.256,-5.2562,-5.257,-5.2569,-5.2567,-5.2566,-5.2702,-5.2707,-5.2712,0,0,0,0,0,0,0,0,0,0,0,0,0,-5.2171,-5.2175,-5.2423,-5.2425,-5.2427,-5.2559,-5.256,-5.2562,-5.257,-5.2569,-5.2567,-5.2565,-5.27,-5.2706,-5.2712,0,0,0,0,0,0,0,0,0,0,0,0,0,-5.2291,-5.2177,-5.2423,-5.2447,-5.245,-5.2558,-5.2561,-5.2563,-5.2571,-5.2568,-5.2566,-5.2564,-5.2698,-5.2706,-5.2713,-5.2806,0,0,-5.2736,-5.274,0,0,0,0,0,0,0,0,-5.2284,-5.23,-5.2442,-5.2445,-5.2449,-5.2545,-5.2521,-5.2644,-5.2571,-5.2525,-5.2566,-5.2563,-5.2652,-5.2663,-5.2693,-5.2812,-5.2818,-5.2737,-5.2742,-5.2745,-5.2747,0,0,0,0,0,0,0,-5.2276,-5.2294,-5.2477,-5.2444,-5.2448,-5.245,-5.2465,-5.2545,-5.2599,-5.2529,-5.253,-5.2546,-5.2653,-5.2686,-5.2696,-5.282,-5.2737,-5.2744,-5.2748,-5.2751,-5.3023,-5.3025,0,0,0,0,0,0,-5.2263,-5.2287,-5.2473,-5.2481,-5.2359,-5.2457,-5.2473,-5.2517,-5.2599,-5.2609,-5.2548,-5.2546,-5.2674,-5.2688,-5.2701,-5.2815,-5.2745,-5.2752,-5.2756,-5.302,-5.3023,-5.3026,0,0,0,0,0,0,-5.2258,-5.2279,-5.2467,-5.2385,-5.2409,-5.2464,-5.2513,-5.2521,-5.2553,-5.2613,-5.2622,-5.2571,-5.2673,-5.2691,-5.278,-5.282,-5.2755,-5.2762,-5.3017,-5.3021,-5.3025,-5.3043,0,0,0,0,0,0,-5.225,-5.2277,-5.2313,-5.2385,-5.2413,-5.2544,-5.2515,-5.2525,-5.2567,-5.2565,-5.2637,-5.2647,-5.2672,-5.2769,-5.2788,-5.2829,-5.2768,-5.3014,-5.3019,-5.3024,-5.3039,-5.3047,-5.3054,0,0,0,0,0,-5.2241,-5.2312,-5.2315,-5.2337,-5.2459,-5.2546,-5.2562,-5.259,-5.257,-5.2606,-5.2645,-5.2645,-5.2813,-5.2778,-5.2799,-5.2843,-5.3011,-5.3017,-5.3023,-5.3035,-5.3045,-5.3053,0,0,0,0,0,0,-5.2242,-5.2322,-5.2326,-5.2423,-5.2478,-5.2547,-5.2594,-5.26,-5.2661,-5.2657,-5.269,-5.2706,-5.2794,-5.2828,-5.2788,-5.2938,-5.291,-5.292,-5.2912,-5.2921,-5.2929,-5.2917,-5.2775,0,0,0,0,0,-5.2254,-5.2319,-5.2385,-5.2464,-5.2492,-5.2538,-5.2577,-5.2595,-5.2653,-5.2676,-5.2721,-5.2776,-5.2842,-5.2884,-5.2948,-5.3045,-5.306,-5.3086,-5.3093,-5.3099,-5.3107,-5.316,-5.3172,-5.3046,-5.3046,-5.3046,0,0,-5.2279,-5.233,-5.2369,-5.2466,-5.251,-5.2576,-5.2558,-5.2628,-5.2676,-5.2686,-5.2773,-5.2808,-5.2873,-5.2966,-5.301,-5.2997,-5.3146,-5.3107,-5.3111,-5.3116,-5.3168,-5.318,-5.319,-5.305,-5.3049,-5.3049,0,0,-5.2356,-5.2402,-5.2473,-5.2519,-5.2587,-5.2618,-5.2635,-5.2705,-5.2728,-5.2817,-5.2825,-5.2884,-5.2996,-5.3042,-5.308,-5.3177,-5.3179,-5.3197,-5.3235,-5.3286,-5.3296,-5.3305,-5.3338,-5.335,-5.3205,-5.3205,-5.3205,0,-5.2377,-5.2477,-5.2508,-5.2579,-5.2621,-5.2634,-5.2706,-5.2748,-5.2834,-5.2862,-5.2848,-5.2989,-5.3034,-5.3138,-5.3162,-5.3193,-5.3212,-5.3187,-5.3293,-5.3302,-5.3311,-5.3343,-5.3355,-5.3207,-5.3207,-5.3207,-5.3206,0,-5.2499,-5.2568,-5.2617,-5.27,-5.2748,-5.2818,-5.286,-5.2905,-5.2919,-5.2952,-5.3041,-5.3096,-5.3171,-5.3197,-5.3211,-5.3304,-5.3294,-5.3286,-5.3258,-5.3324,-5.3354,-5.3367,-5.3209,-5.3209,-5.3208,-5.3208,0,0,-5.2578,-5.2679,-5.2696,-5.2734,-5.2812,-5.2865,-5.2937,-5.3011,-5.3048,-5.3108,-5.3167,-5.3264,-5.3257,-5.33,-5.332,-5.3365,-5.3438,-5.3352,-5.3354,-5.3364,-5.3542,-5.3545,-5.3559,-5.3441,-5.3443,-5.3445,-5.3536,0,-5.2663,-5.279,-5.2821,-5.293,-5.2994,-5.3009,-5.3071,-5.3125,-5.3158,-5.3217,-5.3254,-5.332,-5.3307,-5.3333,-5.338,-5.3419,-5.3473,-5.3413,-5.3495,-5.3498,-5.3476,-5.3575,-5.3579,-5.3662,-5.3548,-5.355,-5.3552,0,-5.2777,-5.284,-5.2955,-5.3025,-5.3053,-5.3108,-5.3179,-5.3235,-5.3297,-5.3318,-5.3367,-5.3383,-5.3458,-5.3429,-5.3532,-5.349,-5.3526,-5.3551,-5.3555,-5.3561,-5.3527,-5.3582,-5.3689,-5.37,-5.3571,-5.3569,-5.3568,0,-5.2821,-5.2934,-5.3018,-5.305,-5.3134,-5.3172,-5.3209,-5.3269,-5.3312,-5.3374,-5.3402,-5.3472,-5.3509,-5.3563,-5.3597,-5.3573,-5.3697,-5.3671,-5.3715,-5.3715,-5.3738,-5.3736,-5.385,-5.3766,-5.3766,-5.3765,-5.3765,0,-5.2911,-5.298,-5.3039,-5.309,-5.3168,-5.3204,-5.328,-5.3317,-5.3371,-5.3429,-5.3448,-5.3502,-5.3545,-5.3605,-5.3633,-5.3713,-5.3731,-5.3749,-5.3755,-5.3746,-5.3743,-5.3767,-5.3762,-5.3769,-5.3768,-5.3767,-5.3767,0,-5.2971,-5.3014,-5.3105,-5.3178,-5.3198,-5.3252,-5.3314,-5.3364,-5.3399,-5.3472,-5.3492,-5.3546,-5.3618,-5.3658,-5.3748,-5.3767,-5.3856,-5.386,-5.3835,-5.3837,-5.3878,-5.3873,-5.401,-5.4029,-5.3934,-5.3935,-5.3936,0,-5.3024,-5.3078,-5.3157,-5.3198,-5.3235,-5.3301,-5.3345,-5.3383,-5.3428,-5.3503,-5.3544,-5.3618,-5.3678,-5.3792,-5.3839,-5.3909,-5.3913,-5.3957,-5.3923,-5.3913,-5.3912,-5.3907,-5.3912,-5.3961,-5.3962,-5.3963,-5.3963,0,-5.3114,-5.3132,-5.3195,-5.3266,-5.3318,-5.3376,-5.3433,-5.3465,-5.3513,-5.3562,-5.3636,-5.3683,-5.3777,-5.3849,-5.3922,-5.396,-5.3969,-5.3974,-5.3987,-5.3977,-5.396,-5.3968,-5.3848,-5.397,-5.3969,-5.3969,-5.3968,-5.3968,-5.3171,-5.3219,-5.3282,-5.3352,-5.3399,-5.3452,-5.3503,-5.3545,-5.3607,-5.3686,-5.3705,-5.3783,-5.3845,-5.3944,-5.3984,-5.4046,-5.4037,-5.4057,-5.4062,-5.4066,-5.4066,-5.3952,-5.4059,-5.4059,-5.4059,-5.4059,-5.4059,0,-5.3259,-5.3301,-5.3365,-5.3445,-5.3499,-5.3506,-5.3569,-5.3614,-5.3683,-5.374,-5.38,-5.3885,-5.3956,-5.4009,-5.4081,-5.412,-5.4126,-5.4137,-5.4134,-5.4142,-5.407,-5.405,-5.4131,-5.4131,-5.4131,-5.4131,-5.4131,-5.4131,-5.3312,-5.3394,-5.342,-5.3526,-5.3567,-5.3644,-5.368,-5.3729,-5.3774,-5.3869,-5.3928,-5.3963,-5.4019,-5.4095,-5.416,-5.4174,-5.4199,-5.4209,-5.4223,-5.4155,-5.4147,-5.4139,-5.4121,-5.4215,-5.4215,-5.429,-5.429,-5.4291]},{"header":{"parameterUnit":"m.s-1","parameterCategory":1,"la1":30.2991,"la2":30.254,"lo1":-89.0895,"lo2":-89.0444,"dy":0.0017,"dx":0.0017,"nx":28,"ny":28,"refTime":"2025-04-02T09:00:00:Z","depth":0,"parameterNumber":3,"parameterNumberName":"V-component_of_WINDS"},"data":[0,0,0,0,0,0,0,0,0,0,0,0,0,0,0,0,0,0,0,0,0,0,0,0,0,0,0,0,0,0,0,0,0,0,0,0,0,0,0,0,0,0,0,0,0,0,0,0,0,0,0,0,0,0,0,0,0,0,5.0343,5.0344,0,5.0446,5.0447,5.0449,5.0431,5.0429,5.0427,5.0425,5.0526,5.0531,5.0535,0,0,0,0,0,0,0,0,0,0,0,0,0,5.0128,5.0133,5.0343,5.0344,5.0346,5.0446,5.0447,5.0449,5.0431,5.0429,5.0426,5.0424,5.0525,5.053,5.0535,0,0,0,0,0,0,0,0,0,0,0,0,0,5.0225,5.0134,5.0343,5.0349,5.0351,5.0446,5.0447,5.0449,5.0431,5.0429,5.0426,5.0423,5.0523,5.053,5.0536,5.063,0,0,5.0556,5.0559,0,0,0,0,0,0,0,0,5.022,5.0233,5.0347,5.0349,5.0351,5.0423,5.0409,5.051,5.0432,5.0401,5.0425,5.0422,5.0494,5.0503,5.0528,5.0635,5.0639,5.0557,5.0561,5.0563,5.0565,0,0,0,0,0,0,0,5.0213,5.0229,5.0384,5.0348,5.0351,5.0346,5.0357,5.0428,5.0461,5.0403,5.0402,5.0415,5.0494,5.0521,5.053,5.0641,5.0556,5.0562,5.0566,5.0569,5.0833,5.0836,0,0,0,0,0,0,5.0205,5.0223,5.0381,5.0387,5.0278,5.0352,5.0364,5.0402,5.046,5.0466,5.0417,5.0413,5.0512,5.0522,5.0533,5.0649,5.0563,5.057,5.0573,5.083,5.0834,5.0837,0,0,0,0,0,0,5.0201,5.0219,5.0376,5.0305,5.0325,5.0358,5.0402,5.0406,5.0433,5.0471,5.0476,5.0439,5.051,5.0524,5.0607,5.0653,5.0572,5.0578,5.0827,5.0831,5.0836,5.0881,0,0,0,0,0,0,5.0195,5.0218,5.0255,5.0306,5.0329,5.0449,5.0404,5.041,5.0445,5.0441,5.0493,5.0498,5.0509,5.0598,5.0614,5.066,5.0584,5.0823,5.0829,5.0834,5.0876,5.0887,5.0896,0,0,0,0,0,5.0187,5.0262,5.0257,5.0276,5.0375,5.0452,5.0465,5.0477,5.0448,5.0486,5.051,5.0497,5.0645,5.0606,5.0624,5.0673,5.082,5.0827,5.0834,5.0871,5.0884,5.0896,0,0,0,0,0,0,5.0213,5.0268,5.0263,5.0357,5.04,5.0449,5.0496,5.049,5.0541,5.0535,5.0546,5.0558,5.0643,5.0666,5.0622,5.0769,5.0728,5.0739,5.075,5.0764,5.0774,5.0766,5.0589,0,0,0,0,0,5.023,5.0288,5.0333,5.0412,5.0434,5.0461,5.0495,5.0501,5.0545,5.0563,5.0593,5.0636,5.0693,5.0729,5.0783,5.0879,5.089,5.0922,5.0932,5.094,5.0949,5.1004,5.1018,5.086,5.086,5.086,0,0,5.0264,5.0302,5.0338,5.0418,5.0452,5.0512,5.0477,5.0541,5.0586,5.0572,5.0653,5.0677,5.0726,5.0816,5.0858,5.0838,5.0996,5.0949,5.0955,5.096,5.1012,5.1027,5.104,5.0865,5.0864,5.0863,0,0,5.0359,5.0393,5.0463,5.0499,5.0552,5.057,5.0587,5.0637,5.0653,5.0736,5.0727,5.078,5.0876,5.0912,5.0942,5.1054,5.1044,5.107,5.1124,5.1177,5.1189,5.12,5.1241,5.1255,5.108,5.108,5.108,0,5.0395,5.0487,5.05,5.0567,5.0602,5.0595,5.0666,5.0699,5.0766,5.0791,5.0769,5.0892,5.0923,5.1023,5.1051,5.1075,5.1095,5.1065,5.1186,5.1198,5.1208,5.1247,5.1262,5.1083,5.1082,5.1082,5.1082,0,5.0529,5.0593,5.0643,5.0711,5.0752,5.0821,5.0844,5.0884,5.0886,5.0907,5.0991,5.103,5.1092,5.1116,5.1118,5.1217,5.1203,5.1184,5.1143,5.1226,5.1263,5.1278,5.1087,5.1086,5.1085,5.1084,0,0,5.0642,5.0718,5.0736,5.0768,5.0827,5.0876,5.0944,5.1007,5.1042,5.1089,5.1147,5.123,5.1213,5.1248,5.1254,5.13,5.1388,5.1275,5.1276,5.1296,5.15,5.1515,5.1532,5.1381,5.1384,5.1387,5.1497,0,5.0743,5.0866,5.088,5.0989,5.1049,5.1044,5.1103,5.1146,5.1167,5.122,5.1243,5.1302,5.1275,5.1296,5.1342,5.1367,5.1429,5.1359,5.1435,5.1438,5.1424,5.1551,5.1567,5.1669,5.1511,5.1513,5.1515,0,5.0877,5.0931,5.1046,5.1099,5.1124,5.1178,5.1238,5.1289,5.1337,5.1349,5.139,5.1391,5.1461,5.1419,5.1516,5.1469,5.1501,5.1518,5.1522,5.153,5.1482,5.1563,5.1701,5.1717,5.1538,5.1536,5.1534,0,5.0949,5.105,5.1133,5.1159,5.1223,5.1261,5.1289,5.1335,5.1372,5.1424,5.1449,5.1508,5.154,5.1585,5.1602,5.1569,5.17,5.1658,5.1712,5.1712,5.174,5.1738,5.1886,5.1759,5.1759,5.1759,5.1758,0,5.1061,5.1132,5.1166,5.1217,5.1297,5.1313,5.1391,5.1417,5.1459,5.1514,5.1512,5.1564,5.1583,5.1638,5.1652,5.1731,5.1745,5.1757,5.176,5.1758,5.1757,5.1779,5.1773,5.1763,5.1762,5.1761,5.176,0,5.1155,5.1181,5.1271,5.1325,5.134,5.1396,5.1442,5.1491,5.1512,5.1583,5.16,5.1633,5.1698,5.172,5.1797,5.1807,5.19,5.1896,5.1884,5.1885,5.1939,5.1934,5.2107,5.2131,5.1988,5.1989,5.199,0,5.1226,5.1281,5.1341,5.1379,5.1409,5.147,5.1509,5.1527,5.1568,5.1629,5.1671,5.1736,5.1789,5.1893,5.1923,5.1983,5.1981,5.2038,5.199,5.1987,5.1984,5.1981,5.1987,5.2047,5.2048,5.2049,5.205,0,5.1348,5.1358,5.1416,5.1479,5.1526,5.1576,5.1623,5.1654,5.168,5.1725,5.1793,5.1835,5.1916,5.198,5.2042,5.207,5.2065,5.2065,5.2081,5.208,5.2072,5.2078,5.191,5.2061,5.206,5.2059,5.2059,5.2058,5.1433,5.1483,5.1534,5.1598,5.1637,5.1682,5.1732,5.176,5.1817,5.1886,5.1893,5.1966,5.2014,5.2097,5.2128,5.2185,5.2169,5.2192,5.2198,5.2204,5.2209,5.2062,5.2196,5.2196,5.2196,5.2196,5.2195,0,5.1556,5.159,5.1649,5.1717,5.1768,5.1761,5.1814,5.1857,5.1922,5.1968,5.2021,5.21,5.2163,5.2199,5.2263,5.2302,5.2301,5.2318,5.2315,5.2322,5.2218,5.2199,5.2317,5.2317,5.2317,5.2317,5.2317,5.2317,5.1627,5.1711,5.1728,5.1831,5.1863,5.1937,5.1968,5.201,5.2047,5.2136,5.2189,5.2213,5.2255,5.2322,5.238,5.2389,5.2413,5.2431,5.2439,5.2342,5.2329,5.2317,5.2299,5.2436,5.2436,5.2538,5.2539,5.254]}]]